CW3081 Weather Reports


time (UTC)temp
C
wind
direction
speed
KPH
gust
KPH
rain 1hr
cm
rain 24hr
cm
rain mn
cm
humidity
%
barometer
mb
20260510090042 12 0 0.0 0.0 0.00 0.00 0.00 91 1013.8
20260510084540 12 0 0.0 0.0 0.00 0.00 0.00 92 1013.7
20260510083050 12 0 0.0 0.0 0.00 0.00 0.00 91 1013.8
20260510081600 12 0 0.0 0.0 0.00 0.00 0.00 91 1013.7
20260510080046 11 0 0.0 1.6 0.00 0.00 0.00 91 1013.7
20260510074543 11 0 0.0 1.6 0.00 0.00 0.00 91 1013.3
20260510073041 11 0 0.0 1.6 0.00 0.00 0.00 92 1013.1
20260510071550 11 251 0.0 3.2 0.00 0.00 0.00 91 1013.1
20260510070055 11 0 0.0 0.0 0.00 0.00 0.00 91 1013.0
20260510064540 11 0 0.0 0.0 0.00 0.00 0.00 91 1013.0
20260510063046 11 0 0.0 0.0 0.00 0.00 0.00 90 1013.0
20260510061549 12 0 0.0 0.0 0.00 0.00 0.00 90 1012.9
20260510060054 12 0 0.0 0.0 0.00 0.00 0.00 90 1013.0
20260510054549 12 0 0.0 0.0 0.00 0.00 0.00 91 1013.0
20260510053050 12 0 0.0 0.0 0.00 0.00 0.00 90 1013.0
20260510051618 12 0 0.0 0.0 0.00 0.00 0.00 90 1013.0
20260510050051 12 0 0.0 0.0 0.00 0.00 0.00 90 1012.9
20260510044545 12 0 0.0 0.0 0.00 0.00 0.00 89 1012.9
20260510043132 13 0 0.0 0.0 0.00 0.00 0.00 89 1013.0
20260510041552 13 0 0.0 0.0 0.00 0.00 0.00 88 1013.0
20260510040050 13 0 0.0 0.0 0.00 0.00 0.00 88 1013.1
20260510034553 13 0 0.0 0.0 0.00 0.00 0.00 87 1012.9
20260510033050 13 0 0.0 0.0 0.00 0.00 0.00 87 1012.9
20260510031613 14 0 0.0 0.0 0.00 0.00 0.00 86 1012.9
20260510030047 15 0 0.0 0.0 0.00 0.00 0.00 85 1012.7
20260510024545 15 0 0.0 0.0 0.00 0.00 0.00 85 1012.5
20260510023054 15 0 0.0 0.0 0.00 0.00 0.00 82 1012.2
20260510021549 16 0 0.0 0.0 0.00 0.00 0.00 81 1012.2
20260510020049 16 0 0.0 0.0 0.00 0.00 0.00 80 1012.2
20260510014547 17 0 0.0 0.0 0.00 0.00 0.00 79 1012.1
20260510013042 17 0 0.0 0.0 0.00 0.00 0.00 77 1011.6
20260510011603 18 0 0.0 0.0 0.00 0.00 0.00 76 1011.5
20260510010058 18 0 0.0 0.0 0.00 0.00 0.00 74 1011.3
20260510004545 20 0 0.0 0.0 0.00 0.00 0.00 72 1011.2
20260510003042 20 0 0.0 0.0 0.00 0.00 0.00 71 1011.2
20260510001547 21 0 0.0 0.0 0.00 0.00 0.00 67 1011.2
20260510000047 22 0 0.0 0.0 0.00 0.00 0.00 63 1011.1
20260509234546 22 0 0.0 0.0 0.00 0.00 0.00 61 1011.0
20260509233044 23 0 0.0 0.0 0.00 0.00 0.00 54 1010.9
20260509231557 23 0 0.0 0.0 0.00 0.00 0.00 53 1010.8
20260509230054 23 0 0.0 0.0 0.00 0.00 0.00 52 1010.8
20260509224548 23 0 0.0 1.6 0.00 0.00 0.00 49 1010.6
20260509223047 23 0 0.0 0.0 0.00 0.00 0.00 52 1010.6
20260509221550 24 0 0.0 0.0 0.00 0.00 0.00 51 1010.4
20260509220049 24 0 0.0 1.6 0.00 0.00 0.00 53 1010.5
20260509214548 24 221 0.0 1.6 0.00 0.00 0.00 51 1010.4
20260509213101 24 0 0.0 1.6 0.00 0.00 0.00 54 1010.3
20260509211610 24 250 1.6 3.2 0.00 0.00 0.00 51 1010.3
20260509210053 24 247 0.0 3.2 0.00 0.00 0.00 49 1010.2
20260509204557 24 278 0.0 1.6 0.00 0.00 0.00 51 1010.3
20260509203057 24 0 0.0 3.2 0.00 0.00 0.00 50 1010.2
20260509201538 23 261 0.0 3.2 0.00 0.00 0.00 53 1010.2
20260509200050 23 351 1.6 3.2 0.00 0.00 0.00 53 1010.5
20260509194547 23 124 0.0 3.2 0.00 0.00 0.00 53 1010.7
20260509193044 24 336 0.0 4.8 0.00 0.00 0.00 55 1010.8
20260509191544 24 0 0.0 3.2 0.00 0.00 0.00 55 1010.9
20260509190047 23 329 0.0 4.8 0.00 0.00 0.00 58 1011.0
20260509184543 23 341 1.6 3.2 0.00 0.00 0.00 57 1011.1
20260509183049 23 279 1.6 3.2 0.00 0.00 0.00 59 1011.1
20260509181604 23 0 0.0 1.6 0.00 0.00 0.00 59 1010.9
20260509180047 22 0 0.0 3.2 0.00 0.00 0.00 62 1010.8
20260509174542 23 100 0.0 1.6 0.00 0.00 0.00 63 1010.8
20260509173057 22 323 0.0 3.2 0.00 0.00 0.00 61 1010.8
20260509171539 22 262 1.6 3.2 0.00 0.00 0.00 61 1010.8
20260509170047 22 25 0.0 1.6 0.00 0.00 0.00 66 1010.9
20260509164551 21 326 0.0 1.6 0.00 0.00 0.00 66 1011.0
20260509163058 21 82 1.6 4.8 0.00 0.00 0.00 69 1011.1
20260509161542 21 32 0.0 1.6 0.00 0.00 0.00 72 1011.0
20260509160051 20 349 1.6 3.2 0.00 0.00 0.00 73 1011.2
20260509154545 20 312 0.0 3.2 0.00 0.00 0.00 74 1011.1
20260509153041 19 0 0.0 3.2 0.00 0.00 0.00 77 1010.9
20260509151545 18 0 0.0 4.8 0.00 0.00 0.00 78 1010.8
20260509150042 18 281 0.0 3.2 0.00 0.00 0.00 79 1010.8
20260509144544 17 252 0.0 1.6 0.00 0.00 0.00 81 1010.7
20260509143040 17 30 0.0 4.8 0.00 0.00 0.00 82 1010.6
20260509141550 17 281 1.6 4.8 0.00 0.00 0.00 83 1010.5
20260509140119 16 284 0.0 3.2 0.00 0.00 0.00 84 1010.5
20260509134551 16 282 1.6 4.8 0.00 0.00 0.00 85 1010.6
20260509133057 16 202 0.0 4.8 0.00 0.00 0.00 86 1010.3
20260509131549 15 262 1.6 3.2 0.00 0.00 0.00 87 1010.5
20260509130047 15 237 0.0 1.6 0.00 0.00 0.00 88 1010.5
20260509124547 14 240 0.0 1.6 0.00 0.00 0.00 91 1010.4
20260509123050 -17 0.0 0.0 0.00 0.00 0.00 1010.5
20260509121541 -17 0.0 0.0 0.00 0.00 0.00 1010.6
20260509120042 -17 0.0 0.0 0.00 0.00 0.00 1010.2
20260509114552 -17 0.0 0.0 0.00 0.00 0.00 1009.7
20260509113047 -17 0.0 0.0 0.00 0.00 0.00 1009.5
20260509111543 -17 0.0 0.0 0.00 0.00 0.00 1009.4
20260509110045 -17 0.0 0.0 0.00 0.00 0.00 1009.4
20260509104552 -17 0 0.0 0.0 0.00 0.00 0.00 1009.4
20260509103048 12 0 0.0 0.0 0.00 0.00 0.00 91 1009.4
20260509101546 12 0 0.0 1.6 0.00 0.00 0.00 91 1009.2
20260509100100 12 0 0.0 0.0 0.00 0.00 0.00 90 1009.4
20260509094542 12 0 0.0 1.6 0.00 0.00 0.00 90 1009.7
20260509093048 12 0 0.0 1.6 0.00 0.00 0.00 89 1009.8
20260509091549 12 0 0.0 0.0 0.00 0.00 0.00 88 1009.9